Fort Rucker / Ozark, AL

3:32 AM CDT on June 29, 2017 (GMT -0500)
Fort Rucker / Ozark

Weather History for KLOR - January, 2013

Change the Weather History Date:

Tuesday, January 1, 2013

  Actual Average (KOZR) Record (KOZR)
Temperature  
Mean Temperature 63 °F -  
Max Temperature 75 °F 59 °F 75 °F (2013)
Min Temperature 51 °F 38 °F 24 °F (1998)
Degree Days  
Heating Degree Days 2    
Growing Degree Days 13 (Base 50)    
Moisture  
Dew Point 58 °F    
Average Humidity 81    
Maximum Humidity 94    
Minimum Humidity 55    
Precipitation  
Precipitation 0.15 in - - ()
Sea Level Pressure  
Sea Level Pressure 29.99 in    
Wind  
Wind Speed 5 mph (SW)    
Max Wind Speed 16 mph    
Max Gust Speed 28 mph    
Visibility 8 miles    
Events Rain    
Averages and records for this station are not official NWS values.
T = Trace of Precipitation, MM = Missing Value Source: NWS Daily Summary

Daily Weather History Graph

Daily Weather History Graph

Search for Another Location

Airport or City:

Trip Planner

Search our weather history database for the weather conditions in past years. The results will help you decide how hot, cold, wet, or windy it might be!

Date:

Astronomy

Jan. 01, 2013 Rise Set
Actual Time 6:42 AM CST 4:51 PM CST
Civil Twilight 6:15 AM CST 5:18 PM CST
Nautical Twilight 5:45 AM CST 5:48 PM CST
Astronomical Twilight 5:15 AM CST 6:18 PM CST
Moon 9:03 PM CST (1/1) 9:10 AM CST (1/1)
Length of Visible Light 11h 02m
Length of Day
10h 09m
Waning Gibbous, 83% of the Moon is Illuminated
Jan 1
Waning Gibbous
Jan 4
Last Quarter
Jan 11
New
Jan 18
First Quarter
Jan 26
Full

Hourly Weather History & Observations

Time (CST) Temp. Dew Point Humidity Pressure Visibility Wind Dir Wind Speed Gust Speed Precip Events Conditions
12:53 AM 52.0 °F 48.9 °F 89% 30.12 in 7.0 mi Calm Calm - N/A   Overcast
1:53 AM 54.0 °F 48.9 °F 83% 30.10 in 9.0 mi Calm Calm - N/A   Mostly Cloudy
2:53 AM 53.1 °F 48.9 °F 86% 30.09 in 8.0 mi Calm Calm - N/A   Mostly Cloudy
3:53 AM 52.0 °F 48.9 °F 89% 30.07 in 8.0 mi SSW 3.5 mph - N/A   Clear
4:53 AM 51.1 °F 48.9 °F 92% 30.06 in 7.0 mi South 3.5 mph - N/A   Clear
5:53 AM 52.0 °F 48.9 °F 89% 30.06 in 7.0 mi Calm Calm - N/A   Clear
6:53 AM 52.0 °F 50.0 °F 93% 30.05 in 5.0 mi SSW 5.8 mph - N/A   Clear
7:53 AM 55.9 °F 53.1 °F 90% 30.05 in 6.0 mi SSW 6.9 mph - N/A   Clear
8:53 AM 62.1 °F 55.0 °F 78% 30.06 in 10.0 mi South 6.9 mph - N/A   Clear
9:53 AM 69.1 °F 55.9 °F 63% 30.06 in 10.0 mi SSW 11.5 mph - N/A   Clear
10:53 AM 73.0 °F 55.9 °F 55% 30.04 in 10.0 mi SSW 16.1 mph 23.0 mph N/A   Clear
11:53 AM 75.0 °F 57.9 °F 55% 30.00 in 10.0 mi SW 11.5 mph 27.6 mph N/A   Mostly Cloudy
12:53 PM 75.0 °F 57.9 °F 55% 29.97 in 10.0 mi SW 16.1 mph - N/A   Overcast
1:53 PM 75.0 °F 59.0 °F 57% 29.96 in 10.0 mi SW 10.4 mph - N/A   Overcast
2:53 PM 73.0 °F 60.1 °F 64% 29.95 in 10.0 mi SW 13.8 mph 19.6 mph N/A   Overcast
3:53 PM 72.0 °F 60.1 °F 66% 29.95 in 10.0 mi SW 11.5 mph - N/A   Overcast
4:53 PM 71.1 °F 60.1 °F 68% 29.95 in 10.0 mi SSW 9.2 mph - N/A   Overcast
5:07 PM 71.6 °F 60.8 °F 69% 29.95 in 10.0 mi SSW 10.4 mph - N/A   Overcast
5:53 PM 70.0 °F 60.1 °F 71% 29.95 in 10.0 mi SSW 9.2 mph - N/A   Overcast
6:43 PM 66.2 °F 62.6 °F 88% 29.96 in 7.0 mi SSW 6.9 mph - 0.03 in Rain Light Rain
6:53 PM 66.0 °F 63.0 °F 90% 29.95 in 10.0 mi SSW 3.5 mph - 0.03 in   Overcast
7:53 PM 66.0 °F 63.0 °F 90% 29.96 in 10.0 mi SSW 6.9 mph - N/A   Overcast
8:25 PM 66.2 °F 64.4 °F 94% 29.95 in 8.0 mi SSW 5.8 mph - N/A   Overcast
8:53 PM 66.0 °F 64.0 °F 93% 29.95 in 8.0 mi SSW 5.8 mph - N/A   Overcast
9:53 PM 66.9 °F 64.0 °F 90% 29.94 in 7.0 mi SSW 6.9 mph - N/A   Overcast
10:53 PM 68.0 °F 64.9 °F 90% 29.94 in 6.0 mi SSW 8.1 mph - 0.00 in Rain Light Rain
11:14 PM 68.0 °F 64.4 °F 88% 29.95 in 4.0 mi WNW 8.1 mph - 0.00 in Rain Light Rain
11:23 PM 66.2 °F 64.4 °F 94% 29.96 in 1.8 mi West 6.9 mph - 0.08 in Rain Rain
11:36 PM 66.2 °F 62.6 °F 88% 29.95 in 3.0 mi West 5.8 mph - 0.10 in Rain Light Rain
11:53 PM 64.9 °F 63.0 °F 93% 29.94 in 4.0 mi WNW 5.8 mph - 0.12 in Rain Light Rain
11:58 PM 64.4 °F 62.6 °F 94% 29.95 in 2.0 mi WNW 3.5 mph - 0.04 in Rain Heavy Rain